FW2068 Weather Reports


Display with metric or nautical units.
time (UTC)temp
F
wind
direction
speed
MPH
gust
MPH
rain 1hr
in
rain 24hr
in
rain mn
in
humidity
%
barometer
mb
20260905113109 78 115 0.0 2.0 0.00 0.00 0.00 79 1013.9
20260905112603 78 160 0.0 2.0 0.00 0.00 0.00 78 1013.7
20260905112100 78 126 0.0 1.0 0.00 0.00 0.00 78 1013.9
20260905111554 78 107 1.0 2.0 0.00 0.00 0.00 78 1014.0
20260905111053 78 158 0.0 2.0 0.00 0.00 0.00 79 1013.6
20260905110552 78 144 1.0 2.0 0.00 0.00 0.00 78 1013.7
20260905110048 78 135 0.0 2.0 0.00 0.00 0.00 78 1013.7
20260905105542 78 142 0.0 1.0 0.00 0.00 0.00 78 1013.5
20260905105041 78 126 1.0 2.0 0.00 0.00 0.00 78 1013.6
20260905104537 79 116 0.0 1.0 0.00 0.00 0.00 77 1013.5
20260905104037 79 213 1.0 2.0 0.00 0.00 0.00 77 1013.4
20260905103532 79 358 0.0 0.0 0.00 0.00 0.00 76 1013.5
20260905103028 79 137 0.0 1.0 0.00 0.00 0.00 76 1013.4
20260905102524 79 164 0.0 2.0 0.00 0.00 0.00 76 1013.5
20260905102020 79 185 0.0 2.0 0.00 0.00 0.00 76 1013.5
20260905101518 79 160 1.0 2.0 0.00 0.00 0.00 75 1013.4
20260905101017 79 189 0.0 1.0 0.00 0.00 0.00 75 1013.6
20260905100514 80 231 1.0 2.0 0.00 0.00 0.00 75 1013.6
20260905100013 80 180 0.0 2.0 0.00 0.00 0.00 75 1013.4
20260905095508 80 147 0.0 2.0 0.00 0.00 0.00 75 1013.4
20260905095003 79 172 1.0 2.0 0.00 0.00 0.00 75 1013.4
20260905094458 79 160 0.0 1.0 0.00 0.00 0.00 76 1013.4
20260905093956 79 142 0.0 0.0 0.00 0.00 0.00 76 1013.3
20260905093452 79 129 0.0 0.0 0.00 0.00 0.00 75 1013.2
20260905092948 80 145 1.0 1.0 0.00 0.00 0.00 75 1013.5
20260905092443 80 145 1.0 2.0 0.00 0.00 0.00 75 1013.2
20260905091938 80 154 1.0 2.0 0.00 0.00 0.00 75 1013.2
20260905091432 80 142 0.0 2.0 0.00 0.00 0.00 74 1013.2
20260905090932 80 153 2.0 2.0 0.00 0.00 0.00 74 1013.1
20260905090427 80 150 1.0 2.0 0.00 0.00 0.00 74 1013.1
20260905085926 80 161 2.0 2.0 0.00 0.00 0.00 74 1013.1
20260905085426 80 158 2.0 2.0 0.00 0.00 0.00 73 1013.0
20260905084922 81 131 0.0 3.0 0.00 0.00 0.00 73 1013.2
20260905084421 81 126 0.0 3.0 0.00 0.00 0.00 73 1012.8
20260905083916 81 132 2.0 4.0 0.00 0.00 0.00 73 1013.0
20260905083412 81 134 2.0 3.0 0.00 0.00 0.00 73 1013.0
20260905082907 81 158 2.0 3.0 0.00 0.00 0.00 73 1013.0
20260905082403 81 162 2.0 2.0 0.00 0.00 0.00 73 1012.9
20260905081859 82 168 2.0 4.0 0.00 0.00 0.00 72 1012.9
20260905081359 81 171 2.0 2.0 0.00 0.00 0.00 73 1012.8
20260905080857 82 161 2.0 3.0 0.00 0.00 0.00 72 1012.8
20260905080352 82 182 2.0 3.0 0.00 0.00 0.00 71 1012.9
20260905075851 82 208 1.0 1.0 0.00 0.00 0.00 71 1012.9
20260905075351 82 217 0.0 2.0 0.00 0.00 0.00 71 1012.9
20260905074850 82 175 0.0 2.0 0.00 0.00 0.00 70 1012.9
20260905074346 82 211 2.0 4.0 0.00 0.00 0.00 71 1012.9
20260905073841 82 205 0.0 2.0 0.00 0.00 0.00 71 1013.0
20260905073336 82 164 1.0 3.0 0.00 0.00 0.00 71 1013.2
20260905072831 82 169 2.0 3.0 0.00 0.00 0.00 70 1013.3
20260905072326 82 163 2.0 2.0 0.00 0.00 0.00 70 1013.3
20260905071823 82 162 2.0 3.0 0.00 0.00 0.00 70 1013.4
20260905071319 82 161 0.0 3.0 0.00 0.00 0.00 70 1013.7
20260905070813 83 160 2.0 2.0 0.00 0.00 0.00 70 1013.5
20260905070310 83 180 1.0 3.0 0.00 0.00 0.00 69 1013.6
20260905065809 83 166 2.0 2.0 0.00 0.00 0.00 68 1013.6
20260905065306 83 180 2.0 2.0 0.00 0.00 0.00 68 1013.5
20260905064758 83 188 3.0 4.0 0.00 0.00 0.00 68 1013.7
20260905064253 83 183 1.0 3.0 0.00 0.00 0.00 68 1013.6
20260905063751 83 179 2.0 3.0 0.00 0.00 0.00 69 1013.5
20260905063248 83 166 2.0 3.0 0.00 0.00 0.00 68 1013.6
20260905062743 83 173 2.0 2.0 0.00 0.00 0.00 68 1013.6
20260905062243 84 178 2.0 4.0 0.00 0.00 0.00 68 1013.6
20260905061738 84 164 2.0 6.0 0.00 0.00 0.00 67 1013.5
20260905061232 84 167 2.0 5.0 0.00 0.00 0.00 67 1013.3
20260905060726 84 154 2.0 5.0 0.00 0.00 0.00 66 1013.6
20260905060224 84 154 1.0 6.0 0.00 0.00 0.00 66 1013.3
20260905055721 84 189 4.0 6.0 0.00 0.00 0.00 66 1013.5
20260905055217 84 160 4.0 4.0 0.00 0.00 0.00 66 1013.3
20260905054712 85 210 3.0 6.0 0.00 0.00 0.00 65 1013.3
20260905054209 84 188 4.0 6.0 0.00 0.00 0.00 66 1013.2
20260905053708 85 162 3.0 6.0 0.00 0.00 0.00 66 1012.9
20260905053203 85 175 5.0 6.0 0.00 0.00 0.00 65 1013.0
20260905052702 85 179 2.0 5.0 0.00 0.00 0.00 65 1013.1
20260905052157 85 189 5.0 5.0 0.00 0.00 0.00 65 1013.1
20260905051652 85 201 7.0 7.0 0.00 0.00 0.00 64 1013.0
20260905051149 85 176 3.0 4.0 0.00 0.00 0.00 64 1013.1
20260905050645 85 184 2.0 4.0 0.00 0.00 0.00 64 1013.0
20260905050142 85 203 3.0 6.0 0.00 0.00 0.00 65 1012.9
20260905045641 85 185 4.0 5.0 0.00 0.00 0.00 64 1013.0
20260905045136 86 176 3.0 6.0 0.00 0.00 0.00 64 1013.1
20260905044631 86 177 5.0 6.0 0.00 0.00 0.00 64 1013.2
20260905044126 86 208 2.0 5.0 0.00 0.00 0.00 64 1013.0
20260905043625 86 169 5.0 6.0 0.00 0.00 0.00 64 1013.0
20260905043120 86 180 5.0 6.0 0.00 0.00 0.00 64 1013.0
20260905042619 86 179 2.0 6.0 0.00 0.00 0.00 64 1013.0
20260905042114 86 170 4.0 5.0 0.00 0.00 0.00 64 1013.2
20260905041609 86 171 4.0 5.0 0.00 0.00 0.00 64 1013.1
20260905041104 86 157 5.0 9.0 0.00 0.00 0.00 63 1013.2
20260905040559 87 154 3.0 6.0 0.00 0.00 0.00 63 1013.1
20260905040057 87 165 5.0 7.0 0.00 0.00 0.00 62 1013.2
20260905035553 87 161 6.0 9.0 0.00 0.00 0.00 62 1013.2
20260905035050 87 166 7.0 8.0 0.00 0.00 0.00 61 1013.2
20260905034545 87 188 4.0 6.0 0.00 0.00 0.00 62 1013.2
20260905034044 87 159 4.0 6.0 0.00 0.00 0.00 61 1013.1
20260905033538 87 130 2.0 6.0 0.00 0.00 0.00 61 1013.3
20260905033034 87 158 6.0 7.0 0.00 0.00 0.00 60 1013.1
20260905032529 87 158 5.0 6.0 0.00 0.00 0.00 61 1013.3
20260905032024 87 145 4.0 5.0 0.00 0.00 0.00 61 1013.4
20260905031520 87 132 3.0 6.0 0.00 0.00 0.00 60 1013.2
20260905031019 88 141 4.0 6.0 0.00 0.00 0.00 60 1013.2
20260905030515 88 146 4.0 6.0 0.00 0.00 0.00 60 1013.0
20260905030014 88 149 3.0 5.0 0.00 0.00 0.00 59 1012.9
20260905025510 88 126 3.0 6.0 0.00 0.00 0.00 59 1013.1
20260905025006 88 145 4.0 6.0 0.00 0.00 0.00 59 1012.7
20260905024502 89 138 3.0 6.0 0.00 0.00 0.00 58 1012.8
20260905023956 89 150 6.0 6.0 0.00 0.00 0.00 57 1012.8
20260905023451 89 133 3.0 7.0 0.00 0.00 0.00 57 1012.8
20260905022950 89 138 4.0 5.0 0.00 0.00 0.00 56 1012.7
20260905022446 89 126 5.0 6.0 0.00 0.00 0.00 56 1012.5
20260905021941 89 142 4.0 5.0 0.00 0.00 0.00 55 1012.4
20260905021440 89 144 3.0 5.0 0.00 0.00 0.00 55 1012.5
20260905020936 90 131 4.0 5.0 0.00 0.00 0.00 55 1012.5
20260905020435 90 120 2.0 4.0 0.00 0.00 0.00 54 1012.4
20260905015930 90 127 3.0 4.0 0.00 0.00 0.00 54 1012.1
20260905015428 90 134 2.0 6.0 0.00 0.00 0.00 53 1012.0
20260905014927 90 141 4.0 4.0 0.00 0.00 0.00 53 1012.0
20260905014423 90 152 4.0 5.0 0.00 0.00 0.00 53 1012.1
20260905013918 91 143 3.0 5.0 0.00 0.00 0.00 53 1012.1
20260905013415 91 91 2.0 3.0 0.00 0.00 0.00 53 1011.8
20260905012910 91 143 4.0 4.0 0.00 0.00 0.00 53 1011.9
20260905012405 91 146 3.0 6.0 0.00 0.00 0.00 53 1011.9
20260905011902 91 140 5.0 5.0 0.00 0.00 0.00 52 1011.7
20260905011357 91 145 3.0 6.0 0.00 0.00 0.00 52 1011.8
20260905010852 92 140 4.0 8.0 0.00 0.00 0.00 52 1011.5
20260905010347 92 150 4.0 7.0 0.00 0.00 0.00 51 1011.4
20260905005843 92 150 4.0 7.0 0.00 0.00 0.00 51 1011.8
20260905005339 93 142 4.0 7.0 0.00 0.00 0.00 51 1011.7
20260905004834 93 120 3.0 9.0 0.00 0.00 0.00 50 1011.5
20260905004328 93 158 7.0 11.0 0.00 0.00 0.00 50 1011.5
20260905003824 93 134 4.0 9.0 0.00 0.00 0.00 50 1011.3
20260905003320 93 158 5.0 10.0 0.00 0.00 0.00 50 1011.4
20260905002815 94 153 8.0 11.0 0.00 0.00 0.00 49 1011.5
20260905002314 94 138 6.0 12.0 0.00 0.00 0.00 49 1011.3
20260905001810 94 122 6.0 12.0 0.00 0.00 0.00 49 1011.3
20260905001309 95 136 8.0 12.0 0.00 0.00 0.00 47 1011.4
20260905000804 95 163 7.0 9.0 0.00 0.00 0.00 47 1011.2
20260905000255 95 152 7.0 9.0 0.00 0.00 0.00 46 1011.2
20260904235750 95 128 4.0 11.0 0.00 0.00 0.00 46 1011.2
20260904235249 96 147 4.0 10.0 0.00 0.00 0.00 45 1011.2
20260904234744 96 163 7.0 10.0 0.00 0.00 0.00 46 1011.2
20260904234239 96 131 4.0 7.0 0.00 0.00 0.00 45 1011.3
20260904233735 96 142 7.0 11.0 0.00 0.00 0.00 44 1011.1
20260904233231 96 141 8.0 12.0 0.00 0.00 0.00 45 1011.3
20260904232728 97 143 4.0 9.0 0.00 0.00 0.00 44 1011.2
20260904232224 97 146 9.0 13.0 0.00 0.00 0.00 44 1011.2
20260904231720 97 123 3.0 7.0 0.00 0.00 0.00 44 1011.0
20260904231215 97 151 9.0 11.0 0.00 0.00 0.00 45 1011.0
20260904230714 97 153 5.0 10.0 0.00 0.00 0.00 44 1011.1
20260904230209 98 105 4.0 9.0 0.00 0.00 0.00 44 1011.1
20260904225709 97 154 6.0 11.0 0.00 0.00 0.00 44 1011.2
20260904225203 98 139 10.0 11.0 0.00 0.00 0.00 43 1011.2
20260904224702 97 155 7.0 11.0 0.00 0.00 0.00 43 1011.3
20260904224157 97 185 8.0 11.0 0.00 0.00 0.00 44 1011.3
20260904223656 98 104 4.0 11.0 0.00 0.00 0.00 42 1011.3
20260904223157 98 153 4.0 8.0 0.00 0.00 0.00 43 1011.1
20260904222652 98 134 5.0 11.0 0.00 0.00 0.00 43 1011.4
20260904222148 98 105 3.0 6.0 0.00 0.00 0.00 44 1011.2
20260904221647 98 149 6.0 8.0 0.00 0.00 0.00 44 1011.2
20260904221143 97 93 5.0 14.0 0.00 0.00 0.00 45 1011.4
20260904220637 96 146 10.0 10.0 0.00 0.00 0.00 45 1011.4
20260904220132 97 108 6.0 13.0 0.00 0.00 0.00 44 1011.4
20260904215627 98 78 1.0 6.0 0.00 0.00 0.00 46 1011.4
20260904215123 98 118 5.0 10.0 0.00 0.00 0.00 44 1011.4
20260904214623 97 128 5.0 11.0 0.00 0.00 0.00 46 1011.7
20260904214119 96 137 7.0 10.0 0.00 0.00 0.00 47 1011.8
20260904213617 97 122 7.0 10.0 0.00 0.00 0.00 46 1011.7
20260904213114 97 117 8.0 11.0 0.00 0.00 0.00 46 1011.7
20260904212613 95 143 6.0 13.0 0.00 0.00 0.00 48 1011.7
20260904212109 95 144 5.0 5.0 0.00 0.00 0.00 48 1011.7
20260904211608 96 142 7.0 10.0 0.00 0.00 0.00 48 1011.9
20260904211103 97 161 10.0 14.0 0.00 0.00 0.00 48 1011.9
20260904210603 98 148 14.0 14.0 0.00 0.00 0.00 46 1011.7
20260904210059 98 135 6.0 11.0 0.00 0.00 0.00 47 1012.0
20260904205554 97 149 9.0 12.0 0.00 0.00 0.00 48 1011.9
20260904205051 98 165 3.0 5.0 0.00 0.00 0.00 48 1012.2
20260904204546 98 131 6.0 9.0 0.00 0.00 0.00 48 1011.9
20260904204042 98 123 6.0 10.0 0.00 0.00 0.00 47 1012.2
20260904203538 96 214 0.0 10.0 0.00 0.00 0.00 49 1012.1
20260904203034 96 192 5.0 11.0 0.00 0.00 0.00 48 1012.3
20260904202530 96 178 4.0 5.0 0.00 0.00 0.00 49 1012.4
20260904202026 96 125 5.0 14.0 0.00 0.00 0.00 49 1012.4
20260904201521 96 178 4.0 5.0 0.00 0.00 0.00 50 1012.3
20260904201016 96 184 6.0 13.0 0.00 0.00 0.00 48 1012.4
20260904200514 95 150 4.0 9.0 0.00 0.00 0.00 51 1012.6
20260904200010 97 152 6.0 14.0 0.00 0.00 0.00 50 1012.7
20260904195509 96 167 9.0 10.0 0.00 0.00 0.00 51 1012.6
20260904195008 95 181 3.0 12.0 0.00 0.00 0.00 51 1012.7
20260904194503 95 171 2.0 6.0 0.00 0.00 0.00 52 1012.8
20260904193958 95 166 3.0 9.0 0.00 0.00 0.00 51 1013.0
20260904193453 96 180 4.0 9.0 0.00 0.00 0.00 49 1013.0
20260904192949 96 152 5.0 9.0 0.00 0.00 0.00 50 1013.1
20260904192449 96 167 8.0 9.0 0.00 0.00 0.00 49 1013.1
20260904191945 95 212 3.0 10.0 0.00 0.00 0.00 50 1013.0
20260904191441 96 173 5.0 9.0 0.00 0.00 0.00 51 1013.3
20260904190938 95 158 2.0 9.0 0.00 0.00 0.00 50 1013.2
20260904190432 95 153 9.0 17.0 0.00 0.00 0.00 52 1013.3
20260904185928 94 189 5.0 10.0 0.00 0.00 0.00 52 1013.3
20260904185424 95 160 4.0 9.0 0.00 0.00 0.00 50 1013.4
20260904184924 94 151 10.0 15.0 0.00 0.00 0.00 52 1013.4
20260904184419 94 136 8.0 16.0 0.00 0.00 0.00 53 1013.3
20260904183914 95 170 7.0 10.0 0.00 0.00 0.00 50 1013.6
20260904183410 94 154 8.0 8.0 0.00 0.00 0.00 51 1013.7
20260904182906 94 145 4.0 10.0 0.00 0.00 0.00 52 1013.6
20260904182406 94 175 5.0 11.0 0.00 0.00 0.00 51 1013.7
20260904181900 94 170 5.0 11.0 0.00 0.00 0.00 50 1014.1
20260904181355 94 171 1.0 7.0 0.00 0.00 0.00 53 1013.9
20260904180851 95 188 4.0 7.0 0.00 0.00 0.00 53 1013.9
20260904180346 94 126 3.0 11.0 0.00 0.00 0.00 53 1014.3
20260904175845 94 107 2.0 9.0 0.00 0.00 0.00 50 1014.1
20260904175345 94 162 12.0 13.0 0.00 0.00 0.00 51 1014.3
20260904174844 93 208 4.0 9.0 0.00 0.00 0.00 51 1014.3
20260904174340 94 166 6.0 10.0 0.00 0.00 0.00 52 1014.4
20260904173836 93 262 2.0 8.0 0.00 0.00 0.00 52 1014.5
20260904173331 92 147 8.0 13.0 0.00 0.00 0.00 55 1014.4
20260904172827 93 149 5.0 6.0 0.00 0.00 0.00 56 1014.7
20260904172326 92 159 8.0 8.0 0.00 0.00 0.00 58 1014.6
20260904171821 92 205 5.0 9.0 0.00 0.00 0.00 57 1014.7
20260904171317 91 209 4.0 5.0 0.00 0.00 0.00 61 1014.7
20260904170813 91 86 4.0 11.0 0.00 0.00 0.00 61 1014.9
20260904170308 91 168 6.0 9.0 0.00 0.00 0.00 62 1014.7
20260904165809 91 163 3.0 8.0 0.00 0.00 0.00 64 1015.0
20260904165307 90 185 5.0 6.0 0.00 0.00 0.00 62 1015.0
20260904164802 91 188 9.0 13.0 0.00 0.00 0.00 63 1014.8
20260904164257 89 160 4.0 7.0 0.00 0.00 0.00 65 1014.9
20260904163753 90 139 13.0 13.0 0.00 0.00 0.00 64 1015.2
20260904163248 90 158 6.0 13.0 0.00 0.00 0.00 64 1015.0
20260904162747 90 130 8.0 12.0 0.00 0.00 0.00 66 1015.1
20260904162243 89 155 5.0 9.0 0.00 0.00 0.00 66 1015.2
20260904161738 90 271 5.0 9.0 0.00 0.00 0.00 65 1015.0
20260904161233 89 156 4.0 5.0 0.00 0.00 0.00 66 1015.1
20260904160728 88 156 8.0 11.0 0.00 0.00 0.00 67 1015.0
20260904160224 88 153 6.0 7.0 0.00 0.00 0.00 68 1015.1
20260904155723 88 231 2.0 7.0 0.00 0.00 0.00 67 1014.9
20260904155222 88 186 4.0 9.0 0.00 0.00 0.00 66 1015.2
20260904154721 87 196 2.0 8.0 0.00 0.00 0.00 68 1015.0
20260904154216 87 183 3.0 9.0 0.00 0.00 0.00 68 1015.0
20260904153711 87 202 4.0 6.0 0.00 0.00 0.00 70 1015.0
20260904153207 87 187 5.0 7.0 0.00 0.00 0.00 70 1014.8
20260904152703 87 236 11.0 11.0 0.00 0.00 0.00 71 1014.8
20260904152158 86 163 6.0 10.0 0.00 0.00 0.00 72 1015.1
20260904151653 87 178 3.0 9.0 0.00 0.00 0.00 73 1015.1
20260904151152 86 164 8.0 13.0 0.00 0.00 0.00 75 1015.0
20260904150648 86 169 7.0 15.0 0.00 0.00 0.00 76 1015.1
20260904150149 86 179 6.0 10.0 0.00 0.00 0.00 78 1014.8
20260904145647 84 170 5.0 10.0 0.00 0.00 0.00 78 1014.8
20260904145142 85 152 8.0 10.0 0.00 0.00 0.00 78 1015.0
20260904144638 85 209 4.0 8.0 0.00 0.00 0.00 78 1014.9
20260904144133 85 162 10.0 14.0 0.00 0.00 0.00 79 1015.0
20260904143629 84 192 5.0 9.0 0.00 0.00 0.00 79 1014.9
20260904143126 84 155 6.0 10.0 0.00 0.00 0.00 80 1015.0
20260904142622 83 170 6.0 13.0 0.00 0.00 0.00 82 1015.1
20260904142117 83 141 13.0 15.0 0.00 0.00 0.00 82 1015.1
20260904141612 83 133 8.0 11.0 0.00 0.00 0.00 83 1014.7
20260904141108 83 133 6.0 11.0 0.00 0.00 0.00 84 1014.9
20260904140604 83 147 8.0 8.0 0.00 0.00 0.00 84 1014.9
20260904135603 82 119 4.0 13.0 0.00 0.00 0.00 85 1014.8
20260904135059 81 140 9.0 10.0 0.00 0.00 0.00 86 1014.8
20260904134554 81 150 9.0 10.0 0.00 0.00 0.00 86 1014.8
20260904134048 81 159 7.0 7.0 0.00 0.00 0.00 86 1014.6
20260904133543 81 141 7.0 10.0 0.00 0.00 0.00 87 1014.7
20260904133040 80 140 8.0 12.0 0.00 0.00 0.00 88 1014.5
20260904132539 80 132 8.0 12.0 0.00 0.00 0.00 89 1014.4
20260904132039 79 157 6.0 10.0 0.00 0.00 0.00 89 1014.6
20260904131539 79 144 5.0 10.0 0.00 0.00 0.00 90 1014.6
20260904131034 79 159 8.0 10.0 0.00 0.00 0.00 90 1014.5
20260904130534 78 161 4.0 11.0 0.00 0.00 0.00 91 1014.6
20260904130029 78 147 6.0 8.0 0.00 0.00 0.00 91 1014.4
20260904125526 78 118 3.0 9.0 0.00 0.00 0.00 91 1014.4
20260904125020 78 120 4.0 9.0 0.00 0.00 0.00 92 1014.4
20260904124516 77 160 2.0 8.0 0.00 0.00 0.00 92 1014.5
20260904124011 77 149 4.0 8.0 0.00 0.00 0.00 92 1014.3
20260904123510 77 122 3.0 7.0 0.00 0.00 0.00 92 1014.5
20260904123007 77 131 2.0 6.0 0.00 0.00 0.00 92 1014.2
20260904122501 77 132 4.0 6.0 0.00 0.00 0.00 93 1014.1
20260904121955 77 106 3.0 5.0 0.00 0.00 0.00 93 1014.1
20260904121452 77 117 4.0 5.0 0.00 0.00 0.00 93 1014.1
20260904120948 77 124 3.0 9.0 0.00 0.00 0.00 93 1014.1
20260904120443 76 141 4.0 4.0 0.00 0.00 0.00 93 1014.1
20260904115938 76 142 3.0 6.0 0.00 0.00 0.00 93 1013.9
20260904115434 76 138 4.0 5.0 0.00 0.00 0.00 92 1013.9
20260904114933 76 135 3.0 7.0 0.00 0.00 0.00 92 1014.1
20260904114428 76 115 4.0 4.0 0.00 0.00 0.00 92 1014.1
20260904113924 76 115 3.0 5.0 0.00 0.00 0.00 92 1013.7
20260904113423 76 95 2.0 8.0 0.00 0.00 0.00 92 1013.7